Wind_Speed
54 51 45 46 49 47 45 41 42 36 37 37 35 36 35 36 34 33 33 36 36 39 40 42 43 46 49 52 53 51 46 47 48 47 47 41 36 29 19 12 14 20 27 37
59 58 54 49 48 49 46 45 42 40 36 37 34 34 34 35 36 31 32 32 34 34 35 35 36 38 40 40 44 45 47 45 40 40 40 41 42 39 35 26 16 15 16 22
62 59 62 57 50 49 47 44 44 40 37 38 36 34 35 37 36 35 33 31 30 33 31 31 31 31 31 33 33 34 35 38 40 39 33 30 30 30 31 30 28 23 16 7
67 65 61 62 58 54 49 51 44 42 39 39 39 36 35 37 38 37 37 32 30 29 30 29 28 28 28 26 28 28 27 27 27 29 30 32 27 22 19 20 18 16 15 12
74 69 67 64 67 61 54 53 51 43 38 39 38 39 40 37 38 37 36 35 31 30 30 28 28 27 25 26 24 23 23 23 23 21 19 18 20 22 22 16 10 8 7 7
76 76 75 70 65 65 61 58 55 49 43 40 38 39 40 42 39 38 35 36 36 32 31 31 29 28 26 24 24 23 20 18 20 20 20 17 12 10 9 9 9 9 7 9
82 84 81 77 73 67 67 63 60 55 49 47 44 39 37 42 43 41 38 37 38 36 34 32 34 32 28 27 26 24 23 23 19 18 18 17 16 13 11 10 10 11 12 14
91 85 82 84 79 73 69 71 64 61 55 54 50 48 39 39 44 46 43 41 37 39 37 35 35 36 34 31 28 27 26 24 24 26 22 20 20 18 17 17 17 18 18 21
92 91 92 89 88 83 79 77 74 68 62 57 61 55 49 43 42 47 50 48 46 44 44 41 39 40 40 37 35 34 33 31 29 30 29 28 31 26 24 23 25 27 28 29
93 99 97 93 92 91 86 82 83 79 68 63 67 64 58 50 43 45 54 54 50 49 48 46 44 43 45 42 42 43 41 38 38 37 36 35 37 37 35 34 32 34 37 40
101 98 103 100 98 93 95 89 96 84 72 72 72 70 66 62 56 50 50 56 57 57 52 50 49 47 48 47 48 48 48 45 45 44 42 41 42 44 44 43 45 45 46 48
107 106 103 104 105 103 100 97 95 100 83 74 79 74 69 67 66 61 55 53 59 64 61 57 55 52 51 53 52 52 52 52 50 51 50 49 47 49 47 48 51 53 53 56
112 110 106 105 106 109 110 104 101 101 92 85 86 78 78 72 70 67 62 57 54 61 65 64 61 59 58 57 55 57 58 57 56 57 56 57 55 53 55 59 58 57 61 64
111 113 111 109 107 108 113 112 105 104 108 92 84 86 85 79 76 73 69 66 63 59 61 67 67 67 65 62 60 59 60 61 62 60 63 63 61 62 61 61 62 63 67 70
99 103 108 110 110 109 114 114 114 108 109 98 88 90 93 89 81 78 76 72 69 67 62 60 68 70 73 68 65 64 67 65 66 66 68 68 68 69 70 69 71 74 77 79
95 98 105 106 110 110 115 120 120 115 113 111 95 90 95 93 87 81 78 78 76 73 71 68 64 68 74 68 62 64 68 68 71 74 76 75 75 77 76 78 80 83 84 84
89 94 98 101 109 116 117 110 110 103 106 114 108 99 93 94 90 90 87 86 83 82 79 77 74 71 75 71 68 68 70 72 74 75 77 80 82 83 84 85 87 90 91 94
70 79 89 100 108 110 118 117 106 105 114 119 116 107 100 96 96 97 97 96 93 92 87 83 81 80 76 72 73 75 76 76 78 80 80 81 84 86 88 90 93 96 99 101
68 77 88 99 111 113 106 111 103 109 117 123 115 110 106 100 97 96 100 104 101 97 96 92 91 85 81 79 79 81 83 84 84 84 87 89 90 93 95 98 101 104 105 107
61 69 79 85 89 97 104 106 105 115 122 122 112 108 109 105 100 100 101 102 103 102 102 100 94 91 87 86 87 89 91 92 93 93 94 95 96 98 102 104 107 109 112 114
54 59 67 76 84 95 102 104 107 117 119 116 113 108 104 105 103 102 106 106 105 102 97 100 96 94 96 95 96 98 98 99 101 102 102 102 103 106 109 112 115 117 120 121
49 55 63 71 80 89 97 105 108 112 118 110 105 101 103 99 99 103 104 108 107 106 98 100 103 101 102 102 104 105 106 108 107 107 108 110 112 115 118 121 122 124 127 130
48 55 63 71 77 88 94 100 105 108 110 93 95 97 94 92 96 100 105 107 106 105 105 105 101 103 107 109 111 113 113 112 113 115 116 117 119 121 123 125 128 130 132 135
51 58 67 75 80 85 87 89 91 92 94 86 89 94 96 97 100 100 101 100 100 101 101 98 100 102 103 106 108 108 112 116 118 120 121 123 125 127 129 131 133 134 136 140
53 62 71 76 81 86 90 89 86 87 89 90 92 97 99 99 99 100 99 98 100 101 100 100 101 103 106 107 107 109 110 111 115 119 123 126 128 131 133 134 136 135 136 136
56 63 71 76 79 81 84 86 88 89 88 91 94 96 97 95 96 97 99 100 100 102 102 100 102 102 101 103 107 108 109 112 115 118 121 125 129 132 134 134 132 127 123 122
57 65 69 73 79 84 84 84 84 87 88 91 91 91 92 95 96 95 96 97 99 101 103 104 103 103 103 104 106 107 109 111 113 116 118 119 121 121 121 119 119 119 117 114
Wind_Direction
274 274 274 275 274 277 281 286 288 289 289 290 295 298 303 313 320 328 335 341 349 354 358 8 13 15 21 23 26 33 33 37 41 43 44 50 58 73 79 100 162 188 204 211
270 270 268 269 271 273 273 276 279 284 286 285 287 289 291 300 308 314 323 327 334 342 350 355 5 10 15 23 26 29 31 35 35 37 42 40 44 44 48 58 95 133 167 193
271 271 266 263 262 264 266 267 273 277 281 282 279 281 284 288 295 300 308 315 319 330 339 345 350 360 7 11 18 26 28 28 30 35 37 39 42 44 45 46 46 43 46 41
268 264 265 261 259 259 261 263 263 269 272 275 275 274 274 280 283 289 294 302 306 315 324 332 338 342 350 358 2 11 19 24 27 28 28 35 36 34 35 39 39 42 46 34
269 263 261 259 258 256 256 255 258 257 262 266 269 270 268 274 274 277 282 289 294 296 309 314 323 326 332 337 347 352 359 5 13 20 25 30 29 33 35 28 11 354 2 347
265 263 260 261 255 254 254 254 254 249 253 258 262 267 268 264 267 266 275 278 282 285 292 297 304 312 312 318 324 329 332 337 342 349 358 2 8 10 9 13 4 0 336 283
264 259 260 258 259 255 248 249 249 248 250 255 257 256 264 264 261 261 267 273 273 278 278 280 290 296 300 300 305 308 314 319 323 320 321 324 325 326 325 319 305 299 294 286
263 261 258 258 256 250 252 248 247 246 248 254 257 257 255 264 259 258 259 261 264 270 273 273 276 284 287 291 293 295 298 301 304 306 306 304 304 306 297 293 289 287 284 280
256 257 257 256 255 253 250 245 248 246 244 249 252 255 253 256 259 258 257 258 259 264 271 272 267 266 276 280 280 284 288 290 293 292 294 294 293 295 290 287 280 276 278 279
256 250 251 252 254 251 251 246 249 249 246 242 250 251 252 251 255 255 256 256 259 261 262 265 267 266 271 274 276 279 281 284 286 288 289 287 286 287 288 284 283 284 282 285
252 250 245 247 249 251 250 248 247 249 244 239 246 246 248 251 251 251 254 254 257 259 261 263 263 265 268 269 272 275 276 279 280 283 279 283 279 279 279 282 279 282 285 287
253 248 245 245 244 246 249 250 247 247 245 236 244 244 246 247 248 250 252 253 252 255 257 259 262 263 265 268 269 270 272 274 275 277 279 280 276 275 274 276 275 275 278 286
251 250 248 244 241 242 243 248 249 247 248 239 240 242 244 245 246 248 248 251 254 256 255 256 258 257 259 263 266 268 271 272 275 276 278 279 276 275 273 275 279 279 280 282
245 246 244 244 243 239 239 241 243 246 249 241 235 240 241 243 245 246 247 249 253 255 259 257 258 258 259 261 265 269 271 272 274 277 280 280 279 276 275 276 278 278 278 280
241 239 239 239 239 237 237 237 237 239 244 243 236 236 238 241 241 244 246 249 251 254 257 261 258 260 260 262 263 267 268 270 274 275 278 277 275 277 280 280 282 283 283 282
240 236 234 233 234 233 232 233 234 233 237 242 237 232 233 238 241 242 246 250 249 251 255 256 259 261 261 262 264 265 267 270 272 273 275 276 275 276 278 279 280 282 284 285
237 235 231 227 229 231 233 233 234 232 233 238 239 235 234 238 240 241 245 247 250 251 251 254 256 258 261 260 262 262 265 269 271 272 274 276 277 278 280 281 282 284 286 286
237 231 228 225 225 226 227 229 226 227 230 233 236 236 234 236 240 241 244 245 246 249 250 251 254 255 258 261 263 263 264 267 270 273 275 278 279 280 281 282 284 286 287 288
232 227 225 224 224 226 225 228 225 224 229 233 234 235 236 237 239 241 242 244 245 246 247 249 251 253 258 260 262 264 265 266 268 270 273 275 277 278 279 281 283 285 286 287
231 227 227 227 225 222 222 223 221 222 227 232 233 231 232 233 235 239 241 244 246 247 246 247 249 253 256 260 262 263 264 266 267 270 271 274 276 278 279 280 281 284 286 287
227 223 219 219 219 218 220 222 222 226 227 230 232 231 230 232 234 238 241 244 246 247 245 249 248 252 257 260 262 263 263 265 268 271 272 274 276 278 279 280 282 284 285 287
221 215 212 213 213 215 219 220 222 226 231 228 229 231 232 233 234 236 240 243 245 248 249 250 251 253 255 258 260 262 264 265 269 272 273 274 276 278 280 281 283 285 286 288
215 209 209 208 209 213 218 222 224 227 233 227 226 230 233 234 235 237 240 243 245 248 250 252 255 255 256 257 258 260 263 266 268 270 273 274 276 277 279 282 283 285 288 290
211 206 206 207 207 211 216 220 223 227 231 230 228 229 232 235 237 238 240 244 247 248 250 254 256 257 258 257 258 262 263 265 267 268 271 274 275 277 279 281 284 286 289 291
212 207 205 207 208 212 215 218 221 224 227 228 228 230 231 233 237 242 245 245 246 248 251 253 255 257 259 262 264 264 265 267 268 270 271 273 274 276 279 282 285 289 292 296
209 211 210 208 213 216 218 219 221 223 225 228 230 232 233 234 238 241 244 247 249 252 255 257 259 260 263 263 265 266 267 268 270 272 274 276 276 277 280 285 289 294 297 300
212 211 214 217 215 215 218 222 223 224 225 228 232 234 236 238 240 243 245 246 248 251 253 256 258 261 262 263 264 266 268 269 272 274 276 279 281 283 285 291 296 298 299 298
Height
10636 10637 10636 10636 10639 10637 10638 10637 10636 10635 10633 10633 10631 10629 10628 10625 10622 10618 10614 10610 10605 10599 10593 10586 10578 10570 10563 10555 10547 10541 10535 10528 10523 10519 10516 10513 10512 10513 10514 10515 10518 10524 10532 10541
10623 10623 10623 10624 10626 10628 10627 10628 10627 10628 10626 10625 10625 10623 10622 10621 10619 10616 10613 10610 10607 10602 10597 10592 10586 10580 10574 10567 10561 10554 10548 10543 10540 10536 10532 10528 10525 10523 10522 10523 10527 10532 10536 10542
10607 10608 10609 10610 10612 10615 10616 10617 10617 10617 10618 10618 10617 10616 10615 10615 10614 10613 10610 10607 10605 10603 10599 10595 10590 10585 10581 10576 10572 10567 10562 10556 10552 10549 10547 10546 10543 10541 10540 10539 10540 10542 10545 10549
10589 10591 10593 10595 10598 10600 10603 10605 10605 10606 10608 10609 10608 10608 10607 10607 10607 10606 10606 10604 10602 10599 10597 10595 10592 10588 10584 10581 10577 10573 10570 10567 10563 10560 10558 10555 10554 10553 10554 10555 10557 10558 10560 10563
10571 10573 10574 10576 10583 10584 10588 10590 10592 10593 10596 10596 10598 10598 10599 10599 10598 10599 10599 10598 10597 10596 10594 10592 10590 10588 10585 10582 10579 10576 10574 10571 10569 10567 10566 10565 10563 10562 10562 10562 10563 10565 10568 10570
10551 10553 10555 10556 10562 10568 10571 10572 10576 10581 10583 10582 10584 10585 10589 10589 10590 10589 10590 10590 10590 10590 10589 10588 10586 10584 10583 10581 10579 10578 10575 10573 10571 10569 10567 10566 10567 10567 10567 10567 10567 10568 10569 10572
10526 10530 10533 10535 10540 10549 10551 10553 10557 10567 10571 10570 10568 10572 10575 10578 10580 10580 10581 10581 10582 10582 10582 10582 10580 10579 10578 10577 10575 10574 10574 10572 10571 10570 10568 10567 10567 10566 10566 10567 10567 10568 10569 10570
10498 10504 10509 10511 10516 10526 10533 10533 10539 10546 10559 10556 10557 10556 10562 10563 10566 10568 10570 10570 10572 10572 10573 10574 10574 10572 10572 10571 10570 10569 10568 10569 10569 10566 10567 10566 10565 10565 10565 10565 10565 10566 10566 10566
10473 10477 10481 10488 10491 10497 10508 10513 10515 10527 10538 10548 10534 10543 10547 10548 10552 10557 10556 10557 10560 10561 10563 10563 10564 10564 10564 10564 10562 10561 10561 10562 10562 10561 10562 10561 10557 10559 10559 10560 10560 10559 10558 10557
10441 10448 10454 10459 10464 10469 10479 10492 10487 10499 10521 10527 10518 10526 10530 10534 10536 10541 10542 10543 10547 10549 10549 10552 10553 10553 10554 10554 10554 10552 10553 10553 10553 10553 10553 10554 10551 10550 10549 10549 10549 10547 10546 10546
10408 10415 10424 10431 10437 10441 10445 10465 10464 10471 10494 10504 10500 10507 10514 10517 10520 10522 10526 10530 10534 10532 10535 10539 10539 10542 10542 10543 10542 10541 10541 10542 10542 10542 10544 10544 10542 10541 10540 10540 10538 10536 10535 10534
10363 10377 10386 10398 10406 10413 10413 10427 10442 10442 10458 10485 10480 10488 10494 10497 10499 10505 10509 10513 10515 10517 10519 10522 10526 10529 10529 10529 10531 10528 10529 10528 10529 10528 10530 10530 10531 10529 10528 10527 10526 10524 10523 10522
10322 10335 10348 10361 10372 10380 10385 10398 10407 10411 10431 10449 10457 10472 10470 10476 10481 10485 10491 10495 10495 10499 10503 10506 10509 10511 10512 10514 10516 10516 10514 10514 10515 10513 10515 10514 10514 10514 10513 10511 10510 10509 10508 10504
10283 10295 10307 10321 10335 10345 10350 10362 10379 10387 10395 10414 10440 10443 10448 10455 10459 10463 10469 10475 10477 10481 10485 10489 10492 10493 10496 10498 10500 10503 10501 10498 10499 10500 10497 10497 10496 10495 10494 10493 10492 10489 10487 10483
10238 10253 10267 10282 10295 10309 10313 10325 10336 10357 10361 10389 10412 10414 10421 10428 10435 10442 10448 10454 10457 10461 10465 10471 10472 10474 10473 10480 10485 10488 10481 10483 10483 10483 10481 10480 10478 10476 10475 10473 10471 10468 10465 10462
10197 10212 10226 10243 10257 10268 10266 10276 10292 10321 10335 10349 10374 10391 10395 10405 10413 10421 10428 10432 10436 10440 10445 10448 10453 10454 10451 10461 10469 10469 10463 10464 10464 10463 10461 10460 10460 10458 10456 10452 10449 10445 10441 10437
10158 10173 10191 10206 10218 10218 10233 10261 10292 10321 10318 10319 10339 10357 10377 10387 10393 10401 10405 10409 10414 10419 10421 10426 10432 10434 10430 10441 10448 10448 10445 10443 10442 10442 10439 10438 10437 10435 10432 10429 10424 10420 10416 10410
10135 10146 10157 10166 10176 10191 10190 10215 10258 10278 10280 10281 10298 10326 10352 10363 10370 10374 10381 10385 10389 10393 10398 10406 10410 10411 10414 10424 10425 10424 10423 10421 10421 10420 10419 10417 10414 10412 10409 10404 10400 10394 10389 10383
10100 10109 10119 10127 10133 10158 10189 10201 10239 10245 10241 10243 10278 10309 10325 10339 10347 10350 10353 10359 10360 10368 10375 10382 10385 10392 10398 10404 10403 10402 10401 10399 10398 10398 10396 10393 10391 10388 10384 10378 10373 10367 10362 10355
10079 10091 10105 10122 10145 10165 10170 10179 10198 10204 10205 10218 10253 10282 10292 10314 10324 10325 10331 10332 10333 10341 10351 10357 10367 10375 10377 10378 10379 10378 10375 10375 10373 10373 10372 10370 10367 10362 10357 10351 10346 10340 10334 10327
10064 10077 10091 10104 10121 10135 10144 10158 10170 10172 10184 10206 10230 10256 10276 10288 10300 10304 10305 10306 10308 10315 10332 10337 10348 10355 10355 10354 10352 10352 10351 10350 10349 10348 10347 10343 10339 10333 10328 10323 10318 10312 10305 10298
10051 10063 10073 10086 10100 10116 10125 10131 10146 10156 10164 10200 10224 10243 10255 10269 10276 10278 10283 10284 10291 10298 10314 10315 10323 10332 10330 10328 10326 10325 10325 10325 10324 10324 10319 10314 10310 10306 10301 10295 10290 10283 10275 10268
10042 10053 10062 10072 10085 10094 10106 10115 10131 10143 10153 10204 10218 10224 10235 10245 10250 10256 10259 10265 10274 10282 10287 10294 10301 10302 10301 10301 10300 10299 10300 10300 10298 10294 10290 10287 10284 10280 10273 10266 10260 10254 10246 10236
10033 10043 10051 10062 10074 10086 10102 10116 10132 10149 10161 10187 10202 10206 10207 10215 10222 10230 10237 10245 10254 10259 10265 10271 10274 10274 10273 10273 10276 10279 10277 10273 10269 10266 10264 10261 10256 10250 10244 10239 10232 10228 10221 10210
10025 10033 10042 10053 10066 10077 10088 10103 10118 10132 10143 10157 10171 10178 10185 10195 10200 10206 10216 10224 10228 10236 10242 10245 10249 10249 10250 10252 10253 10251 10248 10245 10242 10239 10237 10233 10229 10224 10217 10210 10205 10202 10194 10185
10020 10026 10034 10045 10056 10066 10077 10088 10099 10110 10126 10136 10146 10156 10166 10176 10183 10192 10195 10201 10207 10212 10216 10220 10222 10225 10227 10226 10225 10223 10220 10217 10215 10214 10211 10207 10205 10200 10195 10187 10180 10173 10163 10153
10010 10019 10029 10037 10045 10054 10063 10075 10086 10097 10109 10119 10129 10139 10147 10157 10162 10170 10176 10181 10184 10187 10190 10195 10199 10200 10200 10199 10199 10196 10194 10192 10190 10187 10185 10183 10180 10177 10171 10165 10154 10144 10132 10121